Temperature
16 16 16 16 16 16 16 16 16 16 16 16 15 15 15 15 15 15 15 15 15 15 15 15 15 15 15 15 15 15 14 15 15 15 15 15 15 15 16 16 16 16 16
16 16 16 16 16 16 15 16 16 16 15 15 15 15 15 15 15 15 15 15 15 15 15 15 15 15 15 14 14 14 14 14 15 15 15 15 15 15 15 15 15 15 15
16 16 16 16 16 15 15 15 15 15 15 15 15 15 15 15 15 15 15 15 15 15 15 14 15 15 15 14 14 14 14 14 14 15 15 15 15 15 15 15 15 15 15
16 16 16 16 15 15 15 15 15 15 15 15 15 15 14 14 14 14 14 14 14 14 14 14 14 14 14 14 14 14 14 14 14 14 14 15 15 15 15 15 14 14 15
16 16 16 15 15 15 15 15 15 15 15 15 15 14 14 14 14 14 14 14 14 14 14 14 14 14 14 14 14 14 14 14 14 14 14 14 14 14 14 14 14 14 14
16 16 15 15 15 15 15 15 15 15 15 15 15 14 14 14 14 14 14 14 14 14 14 14 14 14 14 14 14 14 14 14 14 14 14 14 14 14 14 14 14 14 14
16 15 15 15 15 15 15 15 15 15 15 15 15 14 14 14 14 14 14 14 14 13 14 14 14 14 14 14 14 14 14 13 14 14 14 14 14 14 14 14 14 14 14
16 16 15 15 15 15 15 15 15 15 15 15 15 14 14 14 14 13 13 13 13 13 13 13 13 13 13 13 13 13 14 13 13 13 13 13 14 14 14 14 14 14 14
16 16 15 15 15 15 15 15 15 15 15 15 15 15 14 14 13 13 13 13 13 13 13 13 13 13 13 13 13 13 13 13 13 13 13 13 13 13 13 13 13 13 13
15 15 15 15 15 15 15 15 15 15 15 15 15 15 15 15 14 13 13 13 13 13 13 13 13 13 13 13 13 13 13 13 13 13 13 13 13 13 13 13 13 13 13
15 15 15 15 15 15 15 15 15 15 15 15 15 15 15 15 15 14 13 13 13 12 12 13 12 13 13 13 13 12 13 13 13 13 13 13 13 13 13 12 12 12 12
15 15 15 15 15 15 15 15 15 15 15 15 15 15 15 15 15 14 13 13 12 12 12 12 12 12 12 12 12 12 12 12 12 12 12 12 12 12 12 12 12 12 12
15 15 15 15 15 15 15 15 15 15 15 15 15 15 15 15 15 15 14 13 13 12 12 12 12 12 12 12 12 12 12 12 12 12 12 12 12 12 12 12 12 12 11
16 15 15 15 15 15 15 15 15 15 15 15 15 15 15 15 15 15 14 14 13 12 12 12 12 12 12 12 12 12 12 12 12 12 12 12 12 11 11 11 11 11 11
15 15 15 15 15 15 15 15 15 15 15 15 15 15 15 15 15 14 14 14 14 13 12 12 12 12 12 12 12 12 11 11 11 11 11 11 11 11 11 11 11 11 11
15 15 15 15 15 15 15 15 15 15 15 15 15 15 15 15 15 14 14 14 14 14 13 12 12 12 12 12 12 11 11 11 11 11 11 11 11 11 11 11 11 10 10
16 16 15 15 15 15 15 15 15 15 15 15 15 15 15 15 14 14 14 14 14 14 14 13 12 12 12 12 12 11 11 11 11 11 11 10 10 10 10 10 10 10 10
16 16 15 15 15 15 15 15 15 15 15 15 15 15 15 15 14 14 14 14 14 14 14 13 13 12 12 12 11 11 11 11 11 10 10 10 10 10 10 10 10 10 10
16 15 15 15 15 15 15 15 15 15 15 15 15 15 15 14 14 14 14 14 14 13 13 13 13 12 12 11 11 11 11 11 10 10 10 10 10 10 10 10 9 9 9
15 15 15 15 15 15 15 15 15 15 15 15 15 14 14 14 14 14 14 14 13 13 13 13 13 12 12 11 11 11 11 11 10 10 10 10 9 9 9 9 9 9 9
15 15 15 15 15 15 15 15 15 15 15 15 14 14 14 14 14 14 14 14 14 13 13 13 12 12 12 11 11 11 11 10 10 10 10 10 9 9 9 9 9 8 8
15 15 15 15 15 15 15 15 14 14 14 14 14 14 14 14 14 14 14 14 13 13 13 13 12 12 12 11 11 11 11 10 10 10 10 9 9 9 9 8 8 8 8
15 15 15 15 15 15 14 14 14 14 14 14 14 14 14 14 14 14 13 13 13 13 13 13 13 12 12 12 11 11 11 10 10 10 9 9 9 9 8 8 8 8 8
15 15 15 15 15 14 14 14 14 14 14 14 14 14 14 14 14 13 13 13 13 13 13 12 12 12 12 11 11 11 11 10 10 9 9 9 9 8 8 8 8 8 7
15 15 14 14 14 14 14 14 14 14 14 14 14 14 14 14 13 13 13 13 13 13 12 12 12 12 11 11 11 11 11 10 10 10 9 9 9 8 8 8 7 7 7
15 14 14 14 14 14 14 14 14 14 14 14 14 13 13 13 13 13 13 13 13 13 12 12 12 12 11 11 11 11 11 10 10 10 9 9 9 8 8 7 7 7 7
Wind_Speed
3 3 2 3 3 4 4 4 4 5 6 7 9 8 7 8 8 8 8 11 11 12 12 12 13 13 13 13 14 14 14 14 14 14 14 13 12 11 11 10 10 10 10
5 3 2 3 3 4 5 5 5 5 5 5 6 7 7 7 8 8 8 9 11 12 13 13 13 13 14 14 14 14 15 15 15 14 14 14 14 13 12 12 11 11 11
7 5 3 3 4 6 7 6 7 6 5 6 6 6 6 6 7 7 8 8 9 12 13 14 14 14 14 14 14 14 15 15 15 15 15 14 14 14 14 13 13 12 12
8 6 4 3 5 6 5 4 4 5 5 5 5 4 5 5 6 6 7 8 8 10 13 15 15 15 15 15 15 15 14 15 15 15 15 15 15 15 14 14 14 13 13
8 7 4 4 6 5 4 4 4 4 4 4 4 4 4 4 4 5 5 7 8 9 11 13 15 16 16 15 16 15 15 15 15 15 16 16 15 15 15 15 15 15 14
8 8 5 5 6 4 4 4 5 4 3 4 5 5 4 4 4 4 4 5 6 8 10 11 11 13 15 15 15 15 15 15 15 15 16 16 15 15 15 15 16 16 16
8 7 5 4 5 4 4 5 4 4 3 3 5 4 5 5 5 4 4 4 5 7 9 9 10 10 11 13 15 15 15 15 15 15 16 16 16 15 15 15 15 16 16
7 7 6 4 4 5 5 4 4 3 2 2 3 3 3 4 5 5 3 4 5 6 7 8 9 9 10 10 13 15 15 15 15 15 16 17 17 16 16 16 16 17 17
6 7 7 5 5 5 5 4 4 4 2 0 1 4 4 2 1 4 4 4 4 4 4 6 7 8 9 10 10 13 15 15 15 15 16 17 17 17 17 17 17 17 18
4 6 6 6 5 4 5 4 4 3 3 1 0 1 2 4 3 1 3 4 4 4 3 5 6 7 8 9 10 12 14 15 15 16 16 17 17 18 18 17 17 17 18
2 4 6 6 5 4 4 4 3 3 3 3 2 1 3 2 3 4 2 1 3 3 3 4 5 5 6 8 9 11 14 15 15 16 16 16 17 18 18 18 17 18 18
1 3 4 5 5 4 4 4 4 4 3 3 2 2 3 3 3 3 3 2 2 2 3 3 4 4 5 6 8 11 13 14 14 15 16 17 17 17 18 18 18 18 18
2 3 3 4 4 4 4 4 4 3 3 3 3 2 2 2 3 4 5 4 2 1 2 2 3 3 4 6 7 9 11 12 13 14 15 16 16 17 17 17 17 18 18
4 4 4 4 4 5 5 4 3 3 3 3 3 3 2 2 3 4 5 5 3 2 2 0 2 2 3 5 6 8 9 11 12 13 14 14 15 16 16 17 17 17 17
3 4 4 4 4 4 5 4 3 2 3 3 3 3 2 2 2 3 4 5 5 4 1 1 0 0 2 4 6 7 8 10 11 11 12 13 14 15 15 16 16 16 16
4 5 5 5 4 4 4 4 3 3 4 2 2 3 3 2 3 3 3 3 4 5 3 2 2 1 3 4 5 6 7 9 9 10 11 12 13 14 14 15 15 15 15
5 5 6 6 5 5 5 5 4 4 4 3 2 3 3 3 3 3 3 3 3 4 5 1 1 1 3 3 5 6 6 7 7 9 10 11 11 12 13 13 14 14 14
5 5 5 5 5 5 5 5 5 5 5 4 3 4 3 3 4 3 3 4 3 3 5 5 2 1 1 2 3 3 4 5 6 8 9 9 10 10 11 12 12 12 13
4 4 5 5 5 6 5 5 5 5 5 4 5 5 4 5 4 3 4 4 3 4 4 5 3 1 1 2 2 3 4 3 4 5 6 7 8 8 9 10 10 11 11
5 5 5 5 5 5 6 6 5 5 4 4 4 4 5 5 6 5 4 4 5 5 5 5 3 2 1 1 2 2 2 1 2 3 5 5 6 7 7 8 9 9 9
5 5 5 5 5 5 6 7 6 6 5 4 3 3 4 6 7 6 5 5 6 5 5 4 3 2 1 2 2 2 2 1 1 2 2 2 3 4 5 5 6 7 8
5 5 5 5 5 4 7 10 8 6 5 5 4 3 3 4 6 8 8 9 9 7 6 4 3 3 3 2 2 3 3 2 0 1 2 1 2 1 2 3 4 5 5
5 5 5 5 5 5 8 9 9 6 6 5 5 4 4 4 5 5 6 7 6 7 8 7 6 5 4 5 4 3 3 3 2 1 3 0 1 1 1 2 3 3 3
5 5 5 5 5 5 8 8 9 6 4 4 4 5 5 4 5 6 6 5 3 3 5 5 5 5 5 5 5 5 5 3 1 1 3 2 0 0 1 2 2 2 3
4 4 5 5 5 4 7 8 8 5 4 3 3 4 5 5 7 9 7 6 4 2 3 6 6 5 5 7 8 5 4 3 1 1 0 2 1 0 1 2 3 2 2
5 5 5 5 5 5 6 8 9 5 5 3 2 3 5 6 8 9 7 7 6 3 3 4 3 3 3 4 6 5 5 4 2 1 1 2 2 1 0 1 2 3 3
Wind_Direction
137 124 120 111 103 102 99 93 89 89 86 86 95 97 93 91 82 72 65 72 75 73 73 70 68 66 63 62 59 56 54 51 48 45 42 38 37 37 38 35 35 36 34
138 126 116 104 104 105 100 100 100 96 90 88 83 89 94 95 89 79 67 66 71 70 67 66 65 65 65 62 59 55 54 51 48 46 44 41 40 39 39 37 38 40 42
139 130 121 111 115 107 98 91 90 88 83 80 76 80 86 87 89 81 73 62 60 64 65 63 61 61 62 61 59 57 54 52 49 48 46 44 41 40 40 41 44 46 48
139 128 118 111 114 105 101 95 89 84 78 77 75 74 74 80 85 86 79 70 65 63 62 62 59 58 60 61 59 57 55 53 51 49 48 46 44 43 43 44 46 47 50
132 128 118 117 116 106 104 109 93 99 95 87 83 71 63 67 70 86 82 76 74 72 67 63 61 58 58 58 57 55 53 52 51 49 47 45 44 45 45 45 47 49 51
128 124 121 121 120 108 98 100 102 92 101 108 94 73 52 51 59 67 80 82 79 77 73 67 61 56 54 53 53 52 51 52 51 50 48 45 45 46 47 47 49 50 50
127 127 129 125 123 122 122 117 109 97 92 105 91 64 37 38 47 45 58 72 72 76 75 69 65 59 53 50 49 50 49 50 50 50 48 46 46 47 48 50 52 53 52
136 137 134 131 129 119 112 112 114 113 113 118 119 106 60 21 22 33 43 66 66 75 76 73 71 65 59 54 49 49 47 48 50 51 49 49 50 50 50 52 54 55 55
139 132 138 137 133 131 135 137 135 132 142 134 137 137 138 170 22 10 30 46 57 66 68 73 73 69 64 59 54 50 49 48 51 52 51 51 51 49 50 53 55 56 56
129 135 136 134 139 139 144 153 147 141 137 149 11 90 142 148 143 104 13 24 44 60 59 72 74 71 69 64 59 56 53 50 50 51 50 51 51 51 52 56 59 59 57
126 133 133 133 138 143 147 145 138 139 137 150 158 126 95 84 106 134 138 32 36 34 43 65 80 78 74 68 65 62 58 54 52 51 50 51 53 53 53 57 60 59 58
147 145 138 138 148 153 160 155 148 143 142 132 127 127 139 139 148 137 145 144 105 25 36 44 62 77 80 74 69 67 64 60 57 55 54 53 53 53 54 56 58 58 58
170 178 159 153 155 163 163 150 142 145 141 133 137 133 134 145 149 139 136 137 122 45 37 32 34 70 85 81 77 74 69 67 62 60 58 56 55 54 54 55 56 57 56
187 181 171 168 170 164 157 146 140 152 143 138 138 134 121 131 138 145 147 139 121 58 37 8 13 48 93 96 88 82 78 73 69 66 62 59 58 57 56 56 56 56 56
184 180 172 170 171 163 154 147 144 146 134 136 136 130 123 122 123 133 141 146 144 147 180 235 226 346 120 112 103 95 88 80 76 71 67 63 60 59 58 58 58 58 57
183 176 176 170 173 167 157 148 143 141 128 128 133 124 113 116 110 116 133 133 135 143 158 210 208 197 138 122 109 105 97 86 80 78 73 69 66 62 61 61 60 60 57
180 183 185 174 176 174 163 151 152 148 141 136 137 136 134 128 116 114 115 117 120 125 131 127 80 104 103 107 103 103 99 93 85 82 81 76 72 68 66 64 63 62 59
185 184 179 170 173 170 166 159 161 161 156 159 162 145 146 132 117 118 119 122 125 128 134 135 116 92 101 134 120 111 104 97 95 86 85 83 77 74 71 69 67 63 59
177 174 168 166 170 171 169 167 163 159 156 161 166 160 157 139 130 125 125 125 123 117 115 132 137 103 75 106 95 82 84 75 94 93 89 82 80 78 75 74 70 66 62
160 164 161 162 165 165 164 160 154 153 152 155 161 159 158 155 157 149 139 136 129 119 118 124 125 113 95 96 107 106 79 37 69 90 91 90 83 76 74 74 71 67 64
158 159 151 146 147 154 163 157 153 156 155 149 144 151 163 161 162 158 153 153 142 134 132 131 134 122 125 132 165 167 142 105 33 62 86 76 75 62 54 63 68 68 66
151 145 149 151 153 159 157 157 155 155 154 149 147 149 151 153 150 148 148 153 155 152 156 151 158 165 192 188 168 160 151 131 273 326 117 61 73 47 28 52 66 67 65
152 147 153 150 150 152 152 150 154 152 154 159 161 162 156 149 147 142 133 128 136 152 158 159 166 188 190 196 173 164 166 161 191 207 133 121 24 25 346 24 55 58 51
156 156 158 159 154 163 160 151 146 136 135 149 161 164 158 157 158 152 141 130 128 139 159 157 173 190 191 185 178 173 166 143 94 37 126 151 236 322 12 8 15 29 32
156 153 151 154 152 156 156 150 141 133 131 140 149 150 155 161 166 154 144 143 139 135 127 148 158 160 163 162 151 128 130 131 150 303 116 145 171 128 6 346 356 9 17
162 155 148 156 159 163 164 157 149 143 142 145 139 151 163 167 166 159 153 154 161 178 145 117 105 99 107 134 154 156 163 157 158 214 229 148 154 128 26 314 354 7 19
Height
1541 1541 1542 1542 1542 1543 1543 1543 1544 1544 1544 1544 1544 1544 1544 1544 1544 1543 1542 1541 1541 1540 1539 1539 1538 1536 1535 1534 1533 1531 1530 1528 1527 1525 1523 1521 1520 1518 1516 1514 1512 1510 1508
1542 1542 1543 1543 1543 1544 1544 1544 1545 1545 1545 1545 1545 1546 1546 1545 1545 1544 1543 1543 1542 1542 1541 1540 1539 1538 1536 1535 1534 1533 1531 1529 1528 1526 1524 1522 1520 1518 1516 1514 1512 1511 1509
1542 1543 1543 1544 1544 1545 1545 1545 1546 1546 1546 1546 1547 1547 1547 1547 1546 1546 1545 1545 1544 1543 1543 1542 1541 1539 1538 1537 1536 1534 1533 1531 1529 1527 1525 1523 1521 1519 1517 1515 1513 1512 1510
1543 1543 1544 1544 1545 1545 1546 1547 1547 1547 1547 1548 1548 1548 1549 1548 1548 1548 1547 1546 1546 1545 1544 1544 1542 1541 1540 1539 1537 1536 1534 1532 1530 1529 1527 1524 1522 1520 1518 1516 1514 1513 1511
1543 1544 1544 1545 1546 1546 1547 1547 1548 1548 1549 1549 1549 1550 1550 1550 1550 1549 1549 1548 1548 1547 1547 1546 1544 1543 1542 1540 1539 1538 1536 1534 1532 1530 1528 1526 1523 1521 1519 1517 1516 1514 1512
1544 1544 1545 1545 1546 1547 1547 1548 1549 1549 1550 1550 1550 1551 1552 1552 1551 1551 1551 1550 1550 1549 1548 1547 1546 1545 1544 1542 1541 1539 1537 1535 1534 1532 1529 1527 1524 1522 1520 1518 1516 1515 1513
1544 1544 1545 1546 1546 1547 1548 1549 1549 1550 1550 1551 1551 1552 1553 1553 1553 1553 1553 1552 1552 1551 1551 1549 1548 1547 1545 1544 1542 1541 1539 1537 1535 1533 1531 1528 1525 1523 1521 1518 1517 1516 1514
1544 1545 1545 1546 1547 1547 1548 1549 1550 1550 1551 1552 1552 1552 1554 1556 1555 1555 1555 1554 1554 1553 1552 1551 1550 1549 1547 1546 1544 1543 1541 1539 1537 1535 1533 1530 1527 1524 1521 1519 1518 1517 1516
1544 1545 1546 1546 1547 1548 1548 1549 1550 1551 1551 1552 1552 1553 1553 1554 1556 1557 1556 1556 1555 1554 1554 1553 1552 1551 1550 1548 1546 1545 1543 1541 1539 1537 1535 1532 1529 1525 1521 1518 1518 1518 1517
1544 1545 1545 1546 1547 1548 1549 1549 1550 1551 1552 1552 1552 1553 1553 1553 1554 1556 1557 1557 1556 1556 1555 1555 1554 1553 1551 1550 1548 1547 1545 1543 1541 1539 1537 1534 1531 1528 1523 1520 1519 1520 1519
1544 1544 1545 1546 1547 1548 1549 1549 1550 1551 1551 1552 1552 1552 1553 1553 1554 1554 1556 1557 1557 1557 1556 1556 1555 1554 1553 1552 1550 1549 1547 1545 1543 1542 1539 1537 1534 1531 1527 1524 1523 1523 1522
1543 1544 1545 1546 1547 1548 1548 1549 1550 1550 1551 1552 1552 1552 1553 1553 1553 1554 1555 1556 1557 1558 1557 1557 1556 1556 1555 1554 1552 1551 1549 1547 1546 1544 1542 1540 1537 1535 1532 1529 1528 1527 1526
1542 1543 1544 1545 1546 1547 1548 1549 1550 1550 1551 1551 1552 1552 1553 1553 1553 1554 1554 1555 1556 1558 1558 1558 1557 1557 1556 1555 1554 1553 1551 1550 1548 1546 1544 1542 1540 1538 1536 1534 1532 1531 1529
1541 1542 1543 1544 1545 1546 1547 1548 1549 1550 1550 1551 1551 1552 1552 1553 1553 1554 1554 1555 1556 1557 1558 1558 1558 1558 1557 1557 1556 1554 1553 1552 1550 1549 1547 1545 1543 1541 1539 1537 1536 1534 1532
1540 1542 1543 1543 1545 1546 1547 1548 1548 1549 1550 1550 1551 1551 1552 1552 1553 1554 1555 1555 1556 1556 1558 1558 1558 1559 1558 1558 1557 1556 1555 1554 1552 1551 1549 1547 1545 1544 1542 1540 1538 1536 1535
1539 1540 1541 1542 1544 1545 1546 1547 1548 1549 1549 1550 1551 1551 1552 1552 1553 1553 1554 1555 1556 1556 1556 1558 1558 1559 1559 1559 1558 1558 1556 1555 1554 1553 1551 1550 1548 1546 1544 1543 1541 1539 1537
1538 1539 1540 1541 1542 1544 1545 1546 1547 1548 1549 1549 1550 1550 1551 1552 1552 1553 1554 1555 1555 1556 1556 1557 1558 1559 1559 1559 1559 1559 1558 1557 1556 1555 1553 1552 1550 1549 1547 1545 1543 1542 1540
1537 1538 1539 1540 1541 1543 1544 1545 1546 1547 1548 1549 1549 1550 1551 1551 1552 1553 1554 1554 1555 1556 1556 1556 1558 1559 1559 1560 1560 1559 1559 1558 1557 1556 1555 1554 1552 1551 1549 1547 1545 1544 1542
1535 1536 1538 1539 1540 1541 1543 1544 1545 1546 1547 1548 1549 1550 1550 1551 1551 1552 1553 1554 1554 1555 1556 1557 1557 1558 1559 1560 1560 1560 1559 1559 1558 1557 1556 1555 1554 1552 1551 1549 1547 1546 1544
1534 1535 1536 1537 1539 1540 1541 1543 1544 1545 1546 1547 1548 1549 1550 1550 1551 1552 1553 1553 1554 1555 1556 1556 1557 1558 1559 1559 1559 1559 1559 1559 1558 1558 1557 1556 1555 1553 1552 1550 1549 1547 1545
1532 1534 1535 1536 1538 1539 1540 1541 1543 1544 1545 1546 1547 1548 1549 1550 1551 1551 1552 1553 1554 1554 1555 1556 1556 1557 1558 1558 1558 1559 1559 1558 1558 1557 1557 1556 1555 1554 1552 1551 1549 1548 1546
1531 1532 1533 1535 1536 1538 1539 1541 1542 1543 1545 1546 1547 1547 1548 1549 1550 1551 1552 1553 1553 1554 1554 1555 1556 1556 1556 1557 1558 1558 1558 1557 1557 1557 1556 1556 1555 1553 1552 1551 1550 1548 1547
1529 1530 1532 1533 1535 1536 1538 1539 1541 1542 1543 1545 1546 1546 1547 1548 1549 1550 1551 1552 1552 1553 1554 1555 1555 1555 1555 1556 1556 1556 1556 1556 1556 1556 1556 1554 1554 1553 1552 1551 1550 1548 1547
1527 1528 1530 1532 1533 1535 1536 1538 1539 1541 1542 1543 1544 1545 1546 1547 1548 1549 1550 1550 1551 1552 1552 1553 1554 1554 1555 1555 1555 1555 1555 1555 1555 1555 1554 1554 1553 1552 1552 1550 1549 1548 1546
1525 1527 1528 1530 1531 1533 1535 1536 1538 1539 1540 1541 1543 1543 1544 1545 1546 1547 1548 1549 1550 1550 1551 1552 1553 1553 1553 1553 1553 1553 1553 1553 1553 1553 1553 1552 1551 1551 1550 1549 1548 1547 1545
1523 1525 1527 1528 1530 1531 1533 1535 1536 1537 1538 1539 1540 1542 1543 1544 1545 1545 1546 1547 1548 1549 1550 1550 1551 1551 1551 1551 1551 1551 1551 1551 1551 1551 1551 1550 1550 1549 1548 1548 1547 1546 1545